Regional Weather Roundup
Issued by NWS

Home | Current Version | Previous Version | Graphics & Text | Print | Product List | Glossary On
Versions: 1 2 3 4 5 6 7 8 9 10 11 12 13 14 15 16 17 18 19 20 21 22 23 24 25 26 27 28 29 30 31 32 33 34 35 36 37 38 39 40 41 42 43 44 45 46 47 48 49 50
000
ASUS43 KLOT 301421
RWRIL

ILLINOIS REGIONAL WEATHER ROUNDUP
NATIONAL WEATHER SERVICE CHICAGO/ROMEOVILLE IL
900 AM CDT SAT MAY 30 2015

NOTE: "FAIR" INDICATES FEW OR NO CLOUDS BELOW 12,000 FEET WITH NO
SIGNIFICANT WEATHER AND/OR OBSTRUCTIONS TO VISIBILITY.

* THESE STATIONS ARE NOT UNDER NWS QUALITY CONTROL. THEY ALSO MAY NOT
  REPORT WEATHER SUCH AS PRECIPITATION OR FOG.

ILZ001-002-007-009-015-016-024-301500-
NORTHWEST ILLINOIS

CITY           SKY/WX    TMP DP  RH WIND       PRES   REMARKS
MOLINE         LGT RAIN  67  64  90 SW5       29.97R
STERLING*      CLOUDY    66  63  88 SW6       29.98S
SAVANNA*       CLOUDY    70  64  80 W6        29.96S
$$

ILZ003-004-008-010-011-017-018-301500-
NORTH CENTRAL ILLINOIS

CITY           SKY/WX    TMP DP  RH WIND       PRES   REMARKS
ROCKFORD       LGT RAIN  67  64  90 SW6       29.99R
FREEPORT*      CLOUDY    67  65  91 W6        29.99R
ROCHELLE*      LGT RAIN  65  64  95 SW8       29.99S
DE KALB*       DRIZZLE   64  62  91 SW6       30.00R
PERU*          CLOUDY    66  64  93 CALM      29.99S
$$

ILZ005-006-012>014-019>023-301500-
NORTHEAST ILLINOIS

CITY           SKY/WX    TMP DP  RH WIND       PRES   REMARKS
CHICAGO-OHARE  CLOUDY    67  64  90 SW3       29.98R
CHICAGO-MIDWAY LGT RAIN  70  66  87 W5        29.99R
AURORA         CLOUDY    68  63  84 SW3       29.99R
LANSING*       LGT RAIN  68  65  90 S3        30.00R
JOLIET*        DRIZZLE   70  68  93 CALM      29.99S
WAUKEGAN       LGT RAIN  54  53  97 N12G20    29.99R
DUPAGE AIRPORT LGT RAIN  68  64  87 W3        29.98R
KANKAKEE*      DRIZZLE   66  65  96 S3        30.02R
WHEELING       CLOUDY    68  63  84 CALM      30.00R
MORRIS*        CLOUDY    67  65  91 CALM      29.98R
ROMEOVILLE*    DRIZZLE   67  63  89 NW3       30.00S
NORTHERLY ISL    N/A     70  63  78 W3          N/A
$$

LMZ740>746-301500-
SOUTHERN LAKE MICHIGAN

STATION/POSITION SKY/WX   TEMP    WIND        PRES    VSBY  WAVE
                          AIR SEA DIR/SP/G                  HT/PER
                          (F)     (DEG/KT/KT) (MB)    (MI)  (FT/S)
SOUTHERN BUOY              42 38  360/ 10/ 12 1016.0R         0
HARRISON CRIB              66     130/  3/  5   N/A
BURNHAM HARBOR             70     210/  2/  6   N/A
CALUMET HARBOR             69     210/  2/  4   N/A
BURNS HARBOR               70     190/  3/  5 1015.9R
MICHIGAN CITY              69     180/  6/  7   N/A
MICHIGAN CITY 6N           62 57  210/  6/  6   N/A           0
ST. JOSEPH                 61 57  230/  6/  6   N/A           1
$$

ILZ025>027-034>036-040-047-049-050-058-095>099-301500-
WEST-CENTRAL ILLINOIS

CITY           SKY/WX    TMP DP  RH WIND       PRES   REMARKS
QUINCY         LGT RAIN  67  65  93 NW3       29.98R
GALESBURG*     LGT RAIN  65  64  96 S3        29.99R
MACOMB*        CLOUDY    66  65  97 W3        30.00S
JACKSONVILLE*  CLOUDY    69  66  90 CALM      29.97S
PITTSFIELD*    DRIZZLE   67  65  92 CALM      29.99R
$$

ILZ028>032-037-038-041>044-048-051>054-059>061-301500-
CENTRAL ILLINOIS

CITY           SKY/WX    TMP DP  RH WIND       PRES   REMARKS
PONTIAC        LGT RAIN  68  67  94 CALM      30.01R
BLOOMINGTON    CLOUDY    68  67  96 SE8       30.00F
DECATUR        CLOUDY    71  67  87 E9        29.97F
PEORIA         LGT RAIN  69  65  86 CALM      29.98S
LACON*         DRIZZLE   66  62  87 CALM      29.98S
LINCOLN*       CLOUDY    69  67  90 E7        29.95F
SPRINGFIELD    LGT RAIN  70  66  87 E7        29.97S
TAYLORVILLE    CLOUDY    68  66  94 E6        29.97S
$$

ILZ033-039-045-046-055>057-062-063-301500-
EAST-CENTRAL ILLINOIS

CITY           SKY/WX    TMP DP  RH WIND       PRES   REMARKS
CHAMPAIGN      CLOUDY    69  65  86 NE10      29.99F
DANVILLE*      CLOUDY    68  67  95 SE6       29.98S
RANTOUL*       LGT RAIN  67  66  95 NE8       30.00S
MATTOON        CLOUDY    73  69  87 S8        29.98S
PARIS*         PTSUNNY   77  69  75 S13       30.00S
$$

ILZ079-100>102-301500-
SOUTHWEST ILLINOIS

CITY           SKY/WX    TMP DP  RH WIND       PRES   REMARKS
ALTON          CLOUDY    70  70 100 MISG      29.97R
BELLEVILLE     CLOUDY    72  72 100 E6        29.95S
CAHOKIA*       CLOUDY    73  67  81 SE5       29.96R
SPARTA*        CLOUDY    73  69  87 S6        29.97S
$$

ILZ064>066-069>071-074>076-080>082-084>086-088>090-092>094-301500-
SOUTH-CENTRAL ILLINOIS

CITY           SKY/WX    TMP DP  RH WIND       PRES   REMARKS
CARBONDALE     CLOUDY    74  69  85 S10       29.98R
CAIRO*         CLOUDY    75  68  78 S9        29.99S
EFFINGHAM*     CLOUDY    73  68  84 SE6       30.00R
MARION         PTSUNNY   77  70  78 S9        29.99S
MT. VERNON     PTSUNNY   75  70  83 S12       29.99S
CENTRALIA*     PTSUNNY   78  69  74 S8        29.98S
SALEM*         CLOUDY    76  70  81 S8        29.98S
METROPOLIS*    CLOUDY    76  69  77 S13       29.99S
$$

ILZ067-068-072-073-078-083-087-091-301500-
SOUTHEAST ILLINOIS

CITY           SKY/WX    TMP DP  RH WIND       PRES   REMARKS
LAWRENCEVILLE  CLOUDY    78  67  68 S15       30.01R HX  80
FLORA*         SUNNY     74  69  82 S13       30.00R
FAIRFIELD*     CLOUDY    76  69  79 S10       29.99R
HARRISBURG*    MOSUNNY   77  69  77 S10       30.00F
ROBINSON*      PTSUNNY   77  67  71 S12       30.01S
CARMI*         PTSUNNY   79  64  61 S14       30.00R HX  81
$$

ABBREVIATIONS USED IN REMARKS
   TC - TEMPERATURE IN CELSIUS
  WCI - WIND CHILL INDEX
   HX - HEAT INDEX
  VSB - VISIBILITY
$$



USA.gov is the U.S. government's official web portal to all federal, state and local government web resources and services.